When you browse on this site, cookies collect data to enhance your experience and personalize the content and advertising you see.
Visit our Privacy Policy to learn more. By continuing to use the site, you agree to this use of cookies and data.
  • In Lithuania
  • List of Countries
  • For 7 days
  • Water Temperature
  • Satellite Maps
  • Weather Map
  • Weather Widgets
  • user-avatar
    Login

    Hourly Weather Maracay

    Today, 19 February, Tuesday

    Time Temperature Precipitation Wind Pressure Humidity
    00:00 +22°C° 0 mm 1 mps 713 mmHg 89%
    01:00 +22°C° 0 mm 1 mps 712 mmHg 90%
    02:00 +22°C° 0 mm 1 mps 712 mmHg 90%
    03:00 +22°C° 0 mm 1 mps 712 mmHg 90%
    04:00 +22°C° 0 mm 1 mps 712 mmHg 90%
    05:00 +22°C° 0 mm 1 mps 712 mmHg 86%
    06:00 +23°C° 0 mm 1 mps 713 mmHg 83%
    07:00 +24°C° 0 mm 1 mps 713 mmHg 79%
    08:00 +26°C° 0 mm 1 mps 714 mmHg 69%
    09:00 +29°C° 0 mm 1 mps 714 mmHg 58%
    10:00 +32°C° 0 mm 1 mps 715 mmHg 48%
    11:00 +32°C° 0 mm 2 mps 714 mmHg 45%
    12:00 +34°C° 0 mm 2 mps 714 mmHg 42%
    13:00 +35°C° 0 mm 2 mps 713 mmHg 39%
    14:00 +34°C° 0 mm 2 mps 712 mmHg 44%
    15:00 +31°C° 0 mm 2 mps 712 mmHg 49%
    16:00 +30°C° 0 mm 2 mps 711 mmHg 54%
    17:00 +28°C° 0 mm 2 mps 711 mmHg 62%
    18:00 +27°C° 0 mm 2 mps 711 mmHg 70%
    19:00 +25°C° 0 mm 2 mps 711 mmHg 78%
    20:00 +24°C° 0 mm 2 mps 712 mmHg 81%
    21:00 +24°C° 0 mm 2 mps 712 mmHg 83%
    22:00 +24°C° 0 mm 1 mps 712 mmHg 85%
    23:00 +23°C° 0 mm 1 mps 712 mmHg 86%

    Tomorrow, 20 February, Wednesday

    Time Temperature Precipitation Wind Pressure Humidity
    00:00 +23°C° 0 mm 1 mps 712 mmHg 87%
    01:00 +23°C° 0 mm 1 mps 712 mmHg 89%
    02:00 +22°C° 0 mm 1 mps 711 mmHg 89%
    03:00 +22°C° 0 mm 1 mps 711 mmHg 90%
    04:00 +22°C° 0 mm 1 mps 711 mmHg 90%
    05:00 +23°C° 0 mm 1 mps 712 mmHg 87%
    06:00 +23°C° 0 mm 1 mps 712 mmHg 84%
    07:00 +24°C° 0 mm 1 mps 713 mmHg 81%
    08:00 +26°C° 0 mm 1 mps 713 mmHg 72%
    09:00 +28°C° 0 mm 1 mps 714 mmHg 63%
    10:00 +30°C° 0 mm 2 mps 714 mmHg 54%
    11:00 +31°C° 0 mm 2 mps 714 mmHg 51%
    12:00 +32°C° 0 mm 2 mps 713 mmHg 48%
    13:00 +34°C° 0 mm 2 mps 712 mmHg 44%
    14:00 +32°C° 0 mm 2 mps 711 mmHg 48%
    15:00 +31°C° 0 mm 2 mps 711 mmHg 52%
    16:00 +29°C° 0 mm 2 mps 710 mmHg 55%
    17:00 +28°C° 0 mm 2 mps 710 mmHg 62%
    18:00 +26°C° 0 mm 2 mps 710 mmHg 69%
    19:00 +24°C° 0 mm 2 mps 710 mmHg 77%
    20:00 +24°C° 0 mm 2 mps 711 mmHg 80%
    21:00 +23°C° 0 mm 1 mps 711 mmHg 83%
    22:00 +23°C° 0 mm 1 mps 712 mmHg 86%
    23:00 +22°C° 0 mm 1 mps 711 mmHg 87%

    Day after tomorrow, 21 February, Thursday

    Time Temperature Precipitation Wind Pressure Humidity
    00:00 +22°C° 0 mm 1 mps 711 mmHg 88%
    01:00 +22°C° 0 mm 1 mps 711 mmHg 90%
    02:00 +22°C° 0 mm 1 mps 711 mmHg 90%
    03:00 +22°C° 0 mm 1 mps 711 mmHg 90%
    04:00 +22°C° 0 mm 1 mps 711 mmHg 90%
    05:00 +22°C° 0 mm 1 mps 711 mmHg 85%
    06:00 +23°C° 0 mm 1 mps 712 mmHg 81%
    07:00 +24°C° 0 mm 1 mps 713 mmHg 77%
    08:00 +26°C° 0 mm 1 mps 713 mmHg 66%
    09:00 +29°C° 0 mm 2 mps 714 mmHg 56%
    10:00 +31°C° 0 mm 2 mps 715 mmHg 45%
    11:00 +32°C° 0 mm 2 mps 714 mmHg 43%
    12:00 +34°C° 0 mm 2 mps 713 mmHg 40%
    13:00 +35°C° 0 mm 2 mps 712 mmHg 38%
    14:00 +34°C° 0 mm 2 mps 712 mmHg 42%
    15:00 +32°C° 0 mm 2 mps 711 mmHg 45%
    16:00 +30°C° 0 mm 2 mps 710 mmHg 49%
    17:00 +29°C° 0 mm 2 mps 710 mmHg 58%
    18:00 +27°C° 0 mm 2 mps 711 mmHg 66%
    19:00 +25°C° 0 mm 2 mps 711 mmHg 75%
    20:00 +24°C° 0 mm 2 mps 711 mmHg 78%
    21:00 +24°C° 0 mm 2 mps 711 mmHg 80%
    22:00 +23°C° 0 mm 1 mps 712 mmHg 83%
    23:00 +23°C° 0 mm 1 mps 712 mmHg 85%

    22 February, Friday

    Time Temperature Precipitation Wind Pressure Humidity
    00:00 +22°C° 0 mm 1 mps 711 mmHg 86%
    01:00 +22°C° 0 mm 1 mps 711 mmHg 87%
    02:00 +22°C° 0 mm 1 mps 711 mmHg 88%
    03:00 +22°C° 0 mm 1 mps 711 mmHg 88%
    04:00 +21°C° 0 mm 1 mps 711 mmHg 89%
    05:00 +22°C° 0 mm 1 mps 712 mmHg 85%
    06:00 +23°C° 0 mm 1 mps 712 mmHg 81%
    07:00 +24°C° 0 mm 1 mps 713 mmHg 77%
    08:00 +27°C° 0 mm 1 mps 714 mmHg 66%
    09:00 +29°C° 0 mm 1 mps 714 mmHg 54%
    10:00 +32°C° 0 mm 2 mps 715 mmHg 43%
    11:00 +32°C° 0 mm 2 mps 714 mmHg 40%
    12:00 +34°C° 0 mm 2 mps 713 mmHg 38%
    13:00 +35°C° 0 mm 2 mps 712 mmHg 35%
    14:00 +34°C° 0 mm 2 mps 712 mmHg 37%
    15:00 +32°C° 0 mm 2 mps 711 mmHg 40%
    16:00 +31°C° 0 mm 3 mps 711 mmHg 43%
    17:00 +29°C° 0 mm 2 mps 711 mmHg 53%
    18:00 +27°C° 0 mm 2 mps 711 mmHg 63%
    19:00 +25°C° 0 mm 2 mps 712 mmHg 73%
    20:00 +24°C° 0 mm 2 mps 712 mmHg 77%
    21:00 +24°C° 0 mm 2 mps 712 mmHg 80%
    22:00 +23°C° 0 mm 2 mps 713 mmHg 84%
    23:00 +23°C° 0 mm 1 mps 712 mmHg 86%

    23 February, Saturday

    Time Temperature Precipitation Wind Pressure Humidity
    00:00 +22°C° 0 mm 1 mps 712 mmHg 88%
    01:00 +22°C° 0 mm 1 mps 712 mmHg 89%
    02:00 +22°C° 0 mm 1 mps 712 mmHg 90%
    03:00 +22°C° 0 mm 1 mps 712 mmHg 90%
    04:00 +21°C° 0 mm 1 mps 712 mmHg 90%
    05:00 +22°C° 0 mm 1 mps 712 mmHg 86%
    06:00 +23°C° 0 mm 1 mps 713 mmHg 82%
    07:00 +24°C° 0 mm 1 mps 714 mmHg 77%
    08:00 +26°C° 0 mm 1 mps 714 mmHg 67%
    09:00 +28°C° 0 mm 2 mps 714 mmHg 57%
    10:00 +30°C° 0 mm 2 mps 715 mmHg 47%
    11:00 +31°C° 0 mm 2 mps 714 mmHg 44%
    12:00 +33°C° 0 mm 3 mps 713 mmHg 41%
    13:00 +34°C° 0 mm 3 mps 713 mmHg 38%
    14:00 +33°C° 0 mm 3 mps 712 mmHg 44%
    15:00 +30°C° 0 mm 3 mps 711 mmHg 50%
    16:00 +29°C° 0 mm 3 mps 711 mmHg 55%
    17:00 +28°C° 0 mm 3 mps 711 mmHg 63%
    18:00 +26°C° 0 mm 2 mps 711 mmHg 70%
    19:00 +25°C° 0 mm 2 mps 712 mmHg 78%
    20:00 +24°C° 0 mm 2 mps 712 mmHg 80%
    21:00 +24°C° 0 mm 2 mps 712 mmHg 82%
    22:00 +23°C° 0 mm 1 mps 713 mmHg 85%
    23:00 +23°C° 0 mm 1 mps 712 mmHg 85%

    24 February, Sunday

    Time Temperature Precipitation Wind Pressure Humidity
    00:00 +23°C° 0 mm 1 mps 712 mmHg 85%
    01:00 +23°C° 0 mm 1 mps 712 mmHg 86%
    02:00 +22°C° 0 mm 1 mps 712 mmHg 87%
    03:00 +22°C° 0 mm 1 mps 712 mmHg 88%
    04:00 +21°C° 0 mm 1 mps 712 mmHg 90%
    05:00 +22°C° 0 mm 1 mps 712 mmHg 84%
    06:00 +22°C° 0 mm 1 mps 713 mmHg 79%
    07:00 +23°C° 0 mm 1 mps 713 mmHg 74%
    08:00 +26°C° 0 mm 2 mps 714 mmHg 61%
    09:00 +28°C° 0 mm 2 mps 714 mmHg 48%
    10:00 +31°C° 0 mm 3 mps 714 mmHg 35%
    11:00 +31°C° 0 mm 3 mps 714 mmHg 37%
    12:00 +33°C° 0 mm 3 mps 713 mmHg 39%
    13:00 +33°C° 0 mm 3 mps 712 mmHg 41%
    14:00 +33°C° 0 mm 3 mps 711 mmHg 45%
    15:00 +31°C° 0 mm 3 mps 711 mmHg 50%
    16:00 +30°C° 0 mm 3 mps 710 mmHg 54%
    17:00 +28°C° 0 mm 3 mps 710 mmHg 63%
    18:00 +26°C° 0 mm 2 mps 710 mmHg 71%
    19:00 +25°C° 0 mm 2 mps 711 mmHg 80%
    20:00 +24°C° 0 mm 2 mps 711 mmHg 81%
    21:00 +24°C° 0 mm 2 mps 711 mmHg 82%
    22:00 +24°C° 0 mm 2 mps 712 mmHg 83%
    23:00 +24°C° 0 mm 2 mps 711 mmHg 84%
    Show more